Вернуться в каталог

IUS R/B(1)

АктивенGTO
NORAD 25671·ROCKET BODY·🇺🇸 United States

Запущен Apr 9, 1999 с Cape Canaveral Space Force Station

Loading…

TLE

УстаревшееSource: Space-Track

Эпоха: Sep 12, 2026, 05:32 UTC

1 25671U 99017C   26255.23124215  .00000096  00000-0  47617-3 0  9990
2 25671  29.0303 330.3671 7213876 332.1955   3.4364  2.29343427 61738

Отслеживайте IUS R/B(1) в реальном времени с AllMySat

Download on the App Store